When you browse on this site, cookies collect data to enhance your experience and personalize the content and advertising you see.
Visit our Privacy Policy to learn more. By continuing to use the site, you agree to this use of cookies and data.
  • In Netherlands
  • List of Countries
  • For 7 days
  • Water Temperature
  • Satellite Maps
  • Weather Map
  • Weather Widgets
  • user-avatar
    Login

    Hourly Weather Chichester

    Today, 27 June, Thursday

    Time Temperature Precipitation Wind Pressure Humidity
    00:00 +13°C° 0 mm 9 mps 769 mmHg 85%
    01:00 +13°C° 0 mm 9 mps 769 mmHg 86%
    02:00 +13°C° 0 mm 9 mps 769 mmHg 87%
    03:00 +13°C° 0 mm 9 mps 769 mmHg 88%
    04:00 +13°C° 0 mm 9 mps 768 mmHg 87%
    05:00 +13°C° 0 mm 9 mps 768 mmHg 87%
    06:00 +13°C° 0 mm 9 mps 768 mmHg 86%
    07:00 +15°C° 0 mm 9 mps 769 mmHg 82%
    08:00 +17°C° 0 mm 8 mps 769 mmHg 79%
    09:00 +18°C° 0 mm 8 mps 769 mmHg 76%
    10:00 +18°C° 0 mm 8 mps 769 mmHg 73%
    11:00 +20°C° 0 mm 8 mps 769 mmHg 71%
    12:00 +21°C° 0 mm 9 mps 769 mmHg 68%
    13:00 +21°C° 0 mm 9 mps 768 mmHg 68%
    14:00 +21°C° 0 mm 9 mps 768 mmHg 68%
    15:00 +21°C° 0 mm 9 mps 768 mmHg 68%
    16:00 +19°C° 0 mm 9 mps 768 mmHg 71%
    17:00 +18°C° 0 mm 9 mps 767 mmHg 73%
    18:00 +17°C° 0 mm 9 mps 767 mmHg 75%
    19:00 +17°C° 0 mm 9 mps 767 mmHg 75%
    20:00 +16°C° 0 mm 9 mps 768 mmHg 75%
    21:00 +15°C° 0 mm 9 mps 768 mmHg 75%
    22:00 +13°C° 0 mm 9 mps 768 mmHg 77%
    23:00 +13°C° 0 mm 9 mps 768 mmHg 80%

    Tomorrow, 28 June, Friday

    Time Temperature Precipitation Wind Pressure Humidity
    00:00 +13°C° 0 mm 8 mps 768 mmHg 82%
    01:00 +12°C° 0 mm 8 mps 767 mmHg 84%
    02:00 +12°C° 0 mm 8 mps 767 mmHg 85%
    03:00 +12°C° 0 mm 8 mps 767 mmHg 86%
    04:00 +12°C° 0 mm 8 mps 767 mmHg 86%
    05:00 +13°C° 0 mm 8 mps 767 mmHg 86%
    06:00 +13°C° 0 mm 8 mps 766 mmHg 86%
    07:00 +16°C° 0 mm 8 mps 766 mmHg 83%
    08:00 +17°C° 0 mm 8 mps 766 mmHg 80%
    09:00 +18°C° 0 mm 8 mps 766 mmHg 77%
    10:00 +20°C° 0 mm 8 mps 766 mmHg 74%
    11:00 +21°C° 0 mm 8 mps 765 mmHg 72%
    12:00 +22°C° 0 mm 8 mps 765 mmHg 70%
    13:00 +22°C° 0 mm 8 mps 765 mmHg 70%
    14:00 +23°C° 0 mm 8 mps 765 mmHg 70%
    15:00 +23°C° 0 mm 7 mps 764 mmHg 69%
    16:00 +22°C° 0 mm 7 mps 764 mmHg 72%
    17:00 +21°C° 0 mm 7 mps 764 mmHg 75%
    18:00 +21°C° 0 mm 7 mps 763 mmHg 78%
    19:00 +20°C° 0 mm 7 mps 763 mmHg 81%
    20:00 +17°C° 0 mm 7 mps 763 mmHg 84%
    21:00 +16°C° 0 mm 7 mps 763 mmHg 86%
    22:00 +16°C° 0 mm 6 mps 763 mmHg 87%
    23:00 +15°C° 0 mm 6 mps 763 mmHg 88%

    Day after tomorrow, 29 June, Saturday

    Time Temperature Precipitation Wind Pressure Humidity
    00:00 +15°C° 0 mm 5 mps 763 mmHg 88%
    01:00 +15°C° 0 mm 5 mps 762 mmHg 88%
    02:00 +15°C° 0 mm 5 mps 762 mmHg 89%
    03:00 +15°C° 0 mm 5 mps 761 mmHg 89%
    04:00 +15°C° 0 mm 5 mps 761 mmHg 88%
    05:00 +17°C° 0 mm 4 mps 761 mmHg 87%
    06:00 +18°C° 0 mm 4 mps 761 mmHg 86%
    07:00 +19°C° 0 mm 5 mps 761 mmHg 83%
    08:00 +20°C° 0 mm 5 mps 760 mmHg 81%
    09:00 +21°C° 0 mm 5 mps 760 mmHg 78%
    10:00 +22°C° 0 mm 5 mps 760 mmHg 75%
    11:00 +22°C° 0 mm 5 mps 759 mmHg 73%
    12:00 +23°C° 0 mm 5 mps 759 mmHg 71%
    13:00 +23°C° 0 mm 4 mps 759 mmHg 71%
    14:00 +23°C° 0 mm 4 mps 759 mmHg 72%
    15:00 +23°C° 0 mm 4 mps 759 mmHg 73%
    16:00 +24°C° 0 mm 3 mps 758 mmHg 75%
    17:00 +24°C° 0 mm 2 mps 758 mmHg 77%
    18:00 +23°C° 0 mm 2 mps 758 mmHg 80%
    19:00 +21°C° 0 mm 2 mps 758 mmHg 84%
    20:00 +20°C° 0 mm 3 mps 758 mmHg 88%
    21:00 +19°C° 0 mm 4 mps 759 mmHg 92%
    22:00 +18°C° 0 mm 4 mps 759 mmHg 88%
    23:00 +17°C° 0 mm 4 mps 759 mmHg 83%

    30 June, Sunday

    Time Temperature Precipitation Wind Pressure Humidity
    00:00 +15°C° 0 mm 4 mps 759 mmHg 79%
    01:00 +14°C° 0 mm 4 mps 759 mmHg 82%
    02:00 +13°C° 0 mm 4 mps 759 mmHg 84%
    03:00 +13°C° 0 mm 4 mps 760 mmHg 87%
    04:00 +13°C° 0 mm 4 mps 760 mmHg 88%
    05:00 +14°C° 0 mm 4 mps 760 mmHg 88%
    06:00 +14°C° 0 mm 4 mps 761 mmHg 89%
    07:00 +17°C° 0 mm 4 mps 761 mmHg 86%
    08:00 +18°C° 0 mm 4 mps 761 mmHg 83%
    09:00 +19°C° 0 mm 3 mps 762 mmHg 80%
    10:00 +20°C° 0 mm 4 mps 762 mmHg 78%
    11:00 +21°C° 0 mm 4 mps 762 mmHg 75%
    12:00 +21°C° 0 mm 5 mps 762 mmHg 72%
    13:00 +21°C° 0 mm 5 mps 762 mmHg 73%
    14:00 +21°C° 0 mm 6 mps 762 mmHg 74%
    15:00 +21°C° 0 mm 6 mps 762 mmHg 75%
    16:00 +21°C° 0 mm 6 mps 762 mmHg 77%
    17:00 +20°C° 0 mm 6 mps 762 mmHg 80%
    18:00 +20°C° 0 mm 6 mps 762 mmHg 82%
    19:00 +19°C° 0 mm 5 mps 762 mmHg 86%
    20:00 +17°C° 0 mm 5 mps 762 mmHg 89%
    21:00 +17°C° 0 mm 4 mps 762 mmHg 93%
    22:00 +15°C° 0 mm 4 mps 762 mmHg 93%
    23:00 +14°C° 0 mm 4 mps 762 mmHg 92%

    1 July, Monday

    Time Temperature Precipitation Wind Pressure Humidity
    00:00 +13°C° 0 mm 4 mps 762 mmHg 92%
    01:00 +12°C° 0 mm 4 mps 762 mmHg 92%
    02:00 +12°C° 0 mm 4 mps 762 mmHg 93%
    03:00 +12°C° 0 mm 4 mps 763 mmHg 93%
    04:00 +12°C° 0 mm 4 mps 763 mmHg 92%
    05:00 +12°C° 0 mm 4 mps 763 mmHg 91%
    06:00 +13°C° 0 mm 4 mps 763 mmHg 90%
    07:00 +14°C° 0 mm 4 mps 763 mmHg 84%
    08:00 +15°C° 0 mm 4 mps 764 mmHg 79%
    09:00 +16°C° 0 mm 5 mps 764 mmHg 73%
    10:00 +17°C° 0 mm 5 mps 764 mmHg 71%
    11:00 +17°C° 0 mm 5 mps 764 mmHg 70%
    12:00 +19°C° 0 mm 5 mps 765 mmHg 69%
    13:00 +19°C° 0 mm 5 mps 764 mmHg 69%
    14:00 +17°C° 0 mm 5 mps 764 mmHg 70%
    15:00 +17°C° 0 mm 5 mps 764 mmHg 71%
    16:00 +18°C° 0 mm 4 mps 764 mmHg 72%
    17:00 +18°C° 0 mm 4 mps 765 mmHg 73%
    18:00 +18°C° 0 mm 4 mps 765 mmHg 74%
    19:00 +17°C° 0 mm 3 mps 765 mmHg 77%
    20:00 +16°C° 0 mm 3 mps 765 mmHg 80%
    21:00 +14°C° 0 mm 3 mps 765 mmHg 84%
    22:00 +13°C° 0 mm 3 mps 765 mmHg 85%
    23:00 +12°C° 0 mm 3 mps 765 mmHg 87%

    2 July, Tuesday

    Time Temperature Precipitation Wind Pressure Humidity
    00:00 +12°C° 0 mm 3 mps 766 mmHg 88%
    01:00 +12°C° 0 mm 3 mps 765 mmHg 89%
    02:00 +11°C° 0 mm 3 mps 765 mmHg 91%
    03:00 +11°C° 0 mm 4 mps 765 mmHg 92%
    04:00 +11°C° 0 mm 4 mps 766 mmHg 90%
    05:00 +12°C° 0 mm 5 mps 766 mmHg 87%
    06:00 +12°C° 0 mm 5 mps 766 mmHg 85%
    07:00 +13°C° 0 mm 4 mps 766 mmHg 82%
    08:00 +14°C° 0 mm 4 mps 766 mmHg 79%
    09:00 +17°C° 0 mm 4 mps 767 mmHg 76%
    10:00 +17°C° 0 mm 3 mps 767 mmHg 75%
    11:00 +18°C° 0 mm 3 mps 767 mmHg 74%
    12:00 +19°C° 0 mm 2 mps 767 mmHg 73%
    13:00 +19°C° 0.1 mm 2 mps 767 mmHg 73%
    14:00 +19°C° 0.1 mm 2 mps 767 mmHg 74%
    15:00 +19°C° 0.1 mm 3 mps 767 mmHg 74%
    16:00 +19°C° 0.1 mm 3 mps 767 mmHg 76%
    17:00 +18°C° 0.1 mm 3 mps 767 mmHg 77%
    18:00 +18°C° 0.1 mm 3 mps 767 mmHg 78%
    19:00 +16°C° 0 mm 3 mps 767 mmHg 81%
    20:00 +14°C° 0 mm 4 mps 767 mmHg 83%
    21:00 +12°C° 0 mm 5 mps 767 mmHg 86%
    22:00 +12°C° 0 mm 5 mps 767 mmHg 87%
    23:00 +11°C° 0 mm 4 mps 767 mmHg 88%
    Show more